Weather History for KGUY - January, 2014

Change the Weather History Date:

Wednesday, January 1, 2014

  Actual Average Record
Temperature  
Mean Temperature 34 °F 34 °F  
Max Temperature 47 °F 47 °F - ()
Min Temperature 21 °F 21 °F - ()
Degree Days  
Heating Degree Days 31 31  
Month to date heating degree days 31 31  
Since 1 July heating degree days 1877 1848  
Cooling Degree Days 0 0  
Month to date cooling degree days 0 0  
Year to date cooling degree days 0 0  
Moisture  
Dew Point 21 °F    
Average Humidity 62    
Maximum Humidity 84    
Minimum Humidity 39    
Precipitation  
Precipitation 0.00 in 0.01 in - ()
Month to date precipitation 0.00 0.01  
Year to date precipitation 0.00 0.01  
Snow  
Snow 0.00 in - - ()
Month to date snowfall 0.0  
Since 1 July snowfall 7.2  
Snow Depth 0.00 in    
Sea Level Pressure  
Sea Level Pressure 30.08 in    
Wind  
Wind Speed 12 mph (North)    
Max Wind Speed 28 mph    
Max Gust Speed 36 mph    
Visibility 10 miles    
Events      
T = Trace of Precipitation, MM = Missing Value Source: NWS Daily Summary

Daily Weather History Graph

Daily Weather History Graph

Search for Another Location

Airport or City:

Trip Planner

Search our weather history database for the weather conditions in past years. The results will help you decide how hot, cold, wet, or windy it might be!

Date:

Astronomy

Jan. 01, 2014 Rise Set
Actual Time 7:58 AM CST 5:41 PM CST
Civil Twilight 7:29 AM CST 6:09 PM CST
Nautical Twilight 6:57 AM CST 6:42 PM CST
Astronomical Twilight 6:26 AM CST 7:13 PM CST
Moon 7:52 AM CST (1/1) 6:26 PM CST (1/1)
Length of Visible Light 10h 40m
Length of Day
9h 42m
New Moon, 0% of the Moon is Illuminated
Jan 1
New Moon
Jan 7
First Quarter
Jan 15
Full
Jan 23
Last Quarter
Jan 30
New

Hourly Weather History & Observations

Time (CST) Temp. Windchill Dew Point Humidity Pressure Visibility Wind Dir Wind Speed Gust Speed Precip Events Conditions
12:53 AM 30.9 °F 22.8 °F 19.9 °F 64% 29.90 in 10.0 mi WNW 9.2 mph - N/A   Clear
1:53 AM 32.0 °F 26.4 °F 19.0 °F 59% 29.87 in 10.0 mi WNW 5.8 mph - N/A   Clear
2:53 AM 30.9 °F 24.3 °F 19.0 °F 61% 29.86 in 10.0 mi WNW 6.9 mph - N/A   Clear
3:53 AM 30.9 °F 22.8 °F 19.0 °F 61% 29.86 in 10.0 mi WNW 9.2 mph - N/A   Clear
4:53 AM 28.9 °F 25.2 °F 19.0 °F 67% 29.84 in 10.0 mi Variable 3.5 mph - N/A   Clear
5:53 AM 30.9 °F 24.3 °F 19.0 °F 61% 29.84 in 10.0 mi West 6.9 mph - N/A   Clear
6:53 AM 27.0 °F 21.6 °F 18.0 °F 69% 29.85 in 10.0 mi WSW 4.6 mph - N/A   Clear
7:53 AM 26.1 °F 20.5 °F 18.0 °F 71% 29.88 in 10.0 mi South 4.6 mph - N/A   Clear
8:53 AM 36.0 °F 28.0 °F 21.9 °F 57% 29.90 in 10.0 mi North 11.5 mph - N/A   Partly Cloudy
9:53 AM 39.9 °F 34.5 °F 23.0 °F 51% 29.94 in 10.0 mi NNE 8.1 mph - N/A   Partly Cloudy
10:53 AM 41.0 °F 32.5 °F 21.0 °F 45% 30.01 in 10.0 mi North 17.3 mph - N/A   Mostly Cloudy
11:53 AM 42.1 °F 32.6 °F 19.9 °F 41% 30.02 in 10.0 mi North 23.0 mph 29.9 mph N/A   Overcast
12:53 PM 46.0 °F 37.4 °F 24.1 °F 42% 30.01 in 10.0 mi North 25.3 mph 32.2 mph N/A   Mostly Cloudy
1:53 PM 46.0 °F 38.0 °F 27.0 °F 47% 30.03 in 10.0 mi North 21.9 mph 26.5 mph N/A   Partly Cloudy
2:08 PM 43.0 °F 33.1 °F 26.1 °F 51% 30.04 in 10.0 mi NNE 26.5 mph 32.2 mph N/A   Mostly Cloudy
2:53 PM 37.9 °F 27.1 °F 24.1 °F 57% 30.09 in 10.0 mi North 23.0 mph 31.1 mph N/A   Mostly Cloudy
3:53 PM 30.9 °F 19.1 °F 21.0 °F 67% 30.17 in 10.0 mi North 18.4 mph 25.3 mph N/A   Overcast
4:24 PM 32.0 °F 21.2 °F 21.0 °F 64% 30.15 in 10.0 mi North 16.1 mph - N/A   Scattered Clouds
4:53 PM 32.0 °F 20.1 °F 21.0 °F 64% 30.21 in 10.0 mi North 19.6 mph 24.2 mph N/A   Clear
5:53 PM 28.9 °F 16.5 °F 21.0 °F 72% 30.25 in 10.0 mi NNE 18.4 mph 23.0 mph N/A   Clear
6:53 PM 27.0 °F 18.7 °F 19.0 °F 72% 30.32 in 10.0 mi NNE 8.1 mph - N/A   Clear
7:53 PM 26.1 °F 17.6 °F 19.0 °F 75% 30.36 in 10.0 mi North 8.1 mph - N/A   Clear
8:53 PM 25.0 °F 18.1 °F 19.0 °F 78% 30.37 in 10.0 mi NNE 5.8 mph - N/A   Clear
9:53 PM 24.1 °F 17.0 °F 19.0 °F 81% 30.39 in 10.0 mi North 5.8 mph - N/A   Partly Cloudy
10:53 PM 21.9 °F 15.7 °F 18.0 °F 85% 30.41 in 10.0 mi NE 4.6 mph - N/A   Partly Cloudy
11:53 PM 21.0 °F 11.4 °F 17.1 °F 85% 30.41 in 10.0 mi NNE 8.1 mph - N/A   Clear